User: anonymous   Login
Location: Carri�res
(48.9069°N, 2.1792°E)
Time: 05:16:42
(UTC+00:00)
Language:

Landsat 5 - Orbit

View from above orbital plane
View from above orbital plane
View from above satellite
View from above satellite

Ground track
Ground track

The orbit data is extracted from the following two-line orbital elements,

1 14780U 84021A   21101.91163613  .00000199  00000-0  24534-4 0  9991
2 14780  98.2007 276.6475 0088415 264.1887  94.9246 14.92249005508280
Epoch (UTC): 11 April 2021 21:52:45
Eccentricity: 0.0088415
inclination: 98.2007°
perigee height: 529 km
apogee height: 652 km
right ascension of ascending node: 276.6475°
argument of perigee: 264.1887°
revolutions per day: 14.92249005
mean anomaly at epoch: 94.9246°
orbit number at epoch: 50828

The dashed part of the orbit path shows where the satellite is in the earth's shadow,  

DLR